Content
SEND FEEDBACK

Daily
Averages
Monthly
Summary
Brazil

TERESINA, PIAUI


Home > South America > Brazil > Piaui
Elevation: 328 feet     Latitude: 05 03S     Longitude: 042 48W

WEATHER
 
SELECT A DAY
Number of Records: 166,087;   Date Range: 6/30/96 - 9/29/14
 
SHARE

PRINT THIS DATA

[ ← Previous Day ]
WEATHER ALMANAC - FEBRUARY 12, 2013
[ Next Day → ]
[ °C ]   °F
Weather ElementAverageHighLow
Temperature83.8 °F97 °F (3:00 pm)75.2 °F (6:00 am)
Dewpoint73.7 °F77 °F (8:00 am)69.8 °F (4:00 pm)
Humidity74 %94 % (1:00 am)33 % (3:00 pm)
Barometer28.66 in29.83 in (8:00 am) (7:00 pm)
Wind Speed3.6 mph11.5 mph (8:00 pm)
Weather ElementAverage
Visibility7 mi
Wind DirectionESE (121.2 °)

Weather ElementTotal
Precipitation---
Cooling Degree Days21.1 (Base 65)
Growing Degree Days36.1 (Base 50)
Averaged from 27 records on February 12, 2013
WEATHER CONDITIONS BREAKOUT
WIND DIRECTION BREAKOUT
WEATHER BY HOUR - FEBRUARY 12, 2013
[ °C ]   °F
Local TimeTemperatureDewpointHumidityBarometerVisibilityWind DirectionWind SpeedGust SpeedPrecipitationEventsConditions
1:00 AM77.0 °F75.2 °F94 %29.77 inCalmClear
2:00 AM77.0 °F75.2 °F94 %29.74 inCalmClear
3:00 AM76.0 °F75.0 °F94 %29.74 in12.0 miCalm
3:00 AM77.0 °F75.2 °F94 %29.74 inCalmClear
4:00 AM77.0 °F73.4 °F89 %29.74 inCalmClear
5:00 AM77.0 °F73.4 °F89 %29.74 inCalmClear
6:00 AM75.2 °F73.4 °F94 %29.77 inCalmClear
7:00 AM77.0 °F75.2 °F94 %29.80 inSSW (200°)6.9 mphClear
8:00 AM80.6 °F77.0 °F89 %29.83 inSSW (200°)2.3 mphClear
9:00 AM84.0 °F75.0 °F68 %29.83 in12.0 miSSW (200°)3.5 mph
9:00 AM84.2 °F75.2 °F74 %29.83 inSSW (200°)3.5 mphClear
10:00 AM89.6 °F73.4 °F59 %29.80 inCalmClear
11:00 AM91.4 °F77.0 °F63 %29.80 in6.2 miESE (120°)6.9 mphScattered Clouds
12:00 PM93.2 °F75.2 °F56 %29.80 in6.2 miSSE (160°)6.9 mphMostly Cloudy
1:00 PM95.0 °F73.4 °F49 %29.77 in6.2 miSouth (190°)3.5 mphMostly Cloudy
2:00 PM96.8 °F71.6 °F44 %29.74 in6.2 miSouth (190°)5.8 mphMostly Cloudy
3:00 PM97.0 °F71.0 °F33 %29.68 in12.0 miSSE (160°)5.8 mphPartly Cloudy
3:00 PM96.8 °F71.6 °F44 %29.68 in6.2 miSSE (160°)5.8 mphScattered Clouds
4:00 PM96.8 °F69.8 °F41 %29.65 in6.2 miSW (220°)5.8 mphScattered Clouds
5:00 PM91.4 °F71.6 °F52 %29.68 in6.2 miNE (50°)8.1 mphScattered Clouds
6:00 PM87.8 °F73.4 °F62 %29.68 in6.2 miEast (80°)2.3 mphRain-ThunderstormLight Thunderstorms and Rain
7:00 PM82.4 °F73.4 °F74 %29.71 in6.2 miNE (40°)8.1 mphMostly Cloudy
8:00 PM78.8 °F73.4 °F83 %5.0 miNE (40°)11.5 mphRain-ThunderstormLight Thunderstorms and Rain
9:00 PM76.0 °F73.0 °F88 %29.80 in5.0 miNW (310°)3.5 mphRain-ThunderstormThunderstorms and Rain
9:00 PM77.0 °F73.4 °F89 %29.80 in5.0 miNW (310°)3.5 mphOvercast
10:00 PM75.2 °F73.4 °F94 %29.77 in6.2 miWest (270°)1.2 mphOvercast
11:00 PM75.2 °F73.4 °F94 %29.80 in6.2 miNE (50°)2.3 mphMostly Cloudy
Hourly data recorded from SBTE, located miles away from Teresina, Piaui







STORIES FROM OUR PARTNERS